Location: Comberton
(52.1833°N, 0.0333°E)
Time: 15:22:32
(UTC+00:00)

Daily predictions for brighter satellites

Satellite Brightness Start Highest point End
(mag) Time Altitude Azimuth Time Altitude Azimuth Time Altitude Azimuth
Cosmos 1624 Rocket 4.0 20:07:36 10° SSW 20:12:46 79° ESE 20:17:58 10° NNE
Gbstr 26 Del rocket 3.3 20:08:27 10° W 20:13:51 72° SSW 20:18:15 10° ESE
Terra 1.9 20:09:59 10° SSE 20:14:41 86° WSW 20:19:25 10° NNW
Cosmos 2360 Rocket 4.4 20:11:25 10° NNW 20:15:02 17° NNE 20:18:40 10° ENE
Sich 1 Rocket 3.9 20:12:54 10° SSE 20:17:03 44° E 20:21:13 10° NNE
Cosmos 1900 4.4 20:12:06 10° SW 20:17:05 90° SE 20:22:02 10° NE
SJ 16-02 3.7 20:16:05 10° NW 20:19:13 20° W 20:22:20 10° SW
USA 229 DEB 4.4 20:17:34 10° NW 20:24:53 62° SW 20:32:58 10° SSE
USA 229 4.4 20:17:37 10° NW 20:24:57 63° SW 20:33:02 10° SSE
MetOp-B 4.4 20:19:58 10° S 20:25:19 74° WSW 20:30:42 10° NNW
Cosmos 1743 2.9 20:22:53 10° N 20:25:42 34° ENE 20:28:29 10° SE
CZ-2C R/B 4.3 20:24:30 10° E 20:25:48 13° ENE 20:27:06 10° NNE
SKYMED 3 4.3 20:25:49 10° NNE 20:29:45 70° ESE 20:33:41 10° S
Cosmos 44 Rocket 4.1 20:26:50 10° S 20:31:20 33° ESE 20:35:56 10° NE
ISS -2.0 20:30:02 10° S 20:31:53 14° SE 20:33:45 10° ESE
Cosmos 2219 Rocket 4.5 20:29:07 10° NNW 20:32:30 16° NNE 20:35:52 10° ENE
Cosmos 1459 Rocket 4.0 20:26:49 10° S 20:33:00 69° E 20:39:08 10° NNE
SL-24 R/B 4.5 20:31:08 10° N 20:35:21 68° WNW 20:39:42 10° SSW
Cosmos 2100 Rocket 4.0 20:30:21 10° S 20:36:33 79° E 20:42:53 10° NNE
Ariane Rocket 3.8 20:32:27 10° SE 20:37:05 38° ENE 20:41:45 10° N
ATLAS 2AS CENTAUR R/B 2.9 20:32:48 10° SW 20:39:45 82° NW 20:46:37 10° NE
ADEOS 4.0 20:34:43 10° S 20:39:53 63° WSW 20:45:05 10° NNW
Cosmos 2369 4.2 20:35:32 10° NNW 20:41:06 51° NE 20:46:24 11° SE
BREEZE-M DEB (TANK) 3.9 20:38:48 10° W 20:41:30 34° SSW 20:47:10 11° SE
SL-4 R/B 3.4 20:38:26 10° W 20:41:34 24° SW 20:44:43 10° SSE
Spot 2 Rocket 3.5 20:37:55 10° SSE 20:42:56 87° WSW 20:48:00 10° NNW
Cosmos 2322 Rocket 4.0 20:38:44 10° NNW 20:43:04 22° NE 20:47:24 10° E
Cosmos 2151 Rocket 4.1 20:40:35 10° SSW 20:44:54 62° WNW 20:49:16 10° N
MOS 1-B 4.4 20:40:47 10° SSE 20:46:35 88° WSW 20:52:27 10° NNW
Cosmos 2082 Rocket 3.1 20:42:18 10° SSE 20:47:06 29° ESE 20:51:54 10° NE
Okean 2 Rocket 3.3 20:42:48 10° SSW 20:47:16 77° W 20:51:48 10° N
USA 305 2.7 20:43:25 10° WNW 20:47:33 81° NNE 20:51:08 11° ESE
Cosmos 2151 4.5 20:46:47 10° NNE 20:50:04 22° ENE 20:52:53 12° ESE
Cosmos 1626 Rocket 4.4 20:52:58 10° N 20:56:57 34° ENE 21:00:04 15° SE
Cosmos 1607 4.5 20:52:18 10° S 20:57:49 36° ESE 21:03:27 10° NE
Cosmos 2233 Rocket 4.2 20:52:10 10° SSE 20:58:09 53° E 21:04:08 10° NNE
Cosmos 2228 3.3 20:55:35 11° SSE 20:59:20 44° E 21:03:16 10° NNE
USA 186 1.9 20:58:27 11° S 21:00:53 51° W 21:03:35 10° NNW
Timation 1 Rocket 4.3 20:55:14 10° SSW 21:01:13 75° ESE 21:07:14 10° NE
Helios 1A Rocket 4.3 20:58:27 10° N 21:01:19 31° WNW 21:04:08 10° SW
Okean O Rocket 2.0 20:57:59 10° S 21:02:13 60° WSW 21:06:30 10° NNW
Tsikada Rocket 4.0 20:57:01 10° N 21:03:14 71° ENE 21:08:51 13° SSE
Cosmos 1697 Rocket 4.0 21:00:40 10° NW 21:05:44 35° WSW 21:10:45 10° S
CZ-4C R/B 1.7 21:04:11 10° SSW 21:08:22 62° SE 21:13:47 10° NE
Cosmos 1725 Rocket 4.0 21:02:55 10° S 21:09:12 86° E 21:15:29 10° N
Cosmos 1452 Rocket 3.4 21:04:24 10° SSW 21:09:35 71° ESE 21:14:49 10° NNE
SL-16 R/B 3.1 21:04:56 10° NNW 21:10:17 40° NE 21:14:58 13° ESE
COSMOS 2406 4.5 21:07:29 15° SE 21:10:22 22° E 21:14:39 10° NE
Cosmos 1867 4.4 21:07:29 10° WSW 21:12:50 56° NW 21:18:14 10° NE
ATLAS 3B R/B 3.7 21:06:53 10° NW 21:14:11 46° WSW 21:20:47 11° S
Okean-O 3.4 21:10:57 10° S 21:15:10 47° W 21:19:25 10° NNW
Cosmos 1331 Rocket 4.2 21:13:35 10° SSW 21:18:50 75° WNW 21:24:04 10° NNE
Cosmos 1892 Rocket 4.1 21:15:04 10° NNW 21:19:19 55° W 21:23:27 10° S
CZ-4B R/B 3.3 21:19:07 16° SSE 21:22:53 90° W 21:27:42 10° NNW
Cosmos 2333 Rocket 3.0 21:17:46 10° NNW 21:23:14 44° NE 21:27:39 15° ESE
USA 245 4.5 21:18:48 12° S 21:24:13 75° WSW 21:30:04 10° NNW
Cosmos 1455 Rocket 3.4 21:21:17 10° SSW 21:25:41 68° WNW 21:30:04 10° N
Cosmos 1302 Rocket 4.0 21:22:12 10° S 21:27:17 63° ESE 21:32:26 10° NNE
Cosmos 2016 Rocket 4.1 21:22:01 10° SSW 21:28:18 78° W 21:34:33 10° N
SL-08 R/B 4.5 21:24:15 10° N 21:28:54 46° WNW 21:33:29 10° SW
Cosmos 1980 Rocket 3.0 21:28:36 10° NW 21:34:01 45° WSW 21:38:33 14° S
CZ-4B R/B 3.1 21:33:11 18° S 21:35:26 50° W 21:38:45 10° NNW
Cosmos 2061 Rocket 4.0 21:29:51 10° S 21:36:04 81° E 21:42:22 10° NNE
Cosmos 1782 2.9 21:32:58 10° SSW 21:36:27 60° WNW 21:39:57 10° N
Cosmos 1544 Rocket 3.8 21:35:33 22° SSE 21:38:02 49° E 21:42:14 10° NNE
Cosmos 724 4.2 21:32:20 10° SSW 21:38:20 73° SE 21:44:15 10° NE
SPOT 3 Rocket 3.9 21:34:29 15° S 21:38:47 60° WSW 21:43:53 10° NNW
NOSS 3-3 (A) 4.1 21:34:27 10° S 21:39:18 42° ESE 21:45:03 10° NE
Cosmos 1933 3.7 21:44:19 28° SE 21:45:43 41° E 21:49:20 10° NNE
Cosmos 2084 Rocket 3.6 21:44:07 10° NW 21:48:16 61° SW 21:50:19 28° SSE
Cosmos 1758 Rocket 3.5 21:46:46 10° NNW 21:51:10 83° W 21:53:41 25° S
Terra 4.4 21:50:43 10° WSW 21:52:57 13° W 21:55:10 10° WNW
Helios 1B rocket 3.4 21:51:51 22° ESE 21:53:09 28° ENE 21:56:12 10° N
CZ-2C R/B 2.8 21:55:17 28° SSW 21:56:16 41° W 21:58:56 10° NNW
Cosmos 1464 Rocket 4.4 21:53:23 23° SSE 21:56:47 44° E 22:02:35 10° NNE
Gbstr 26 Del rocket 4.2 21:55:34 10° W 21:59:36 27° SW 22:00:52 23° S
Cosmos 2360 Rocket 2.8 21:54:57 10° NNW 22:00:28 48° NE 22:04:14 20° ESE
NOSS 3-3 (C) 3.8 22:02:52 15° SSW 22:07:07 53° SE 22:13:14 10° NE
Cosmos 1825 Rocket 4.0 22:03:17 10° N 22:07:28 46° ENE 22:09:11 30° SE
ISS -3.6 22:04:52 10° SW 22:08:06 48° SSE 22:08:14 48° SSE
ALOS 2 4.3 22:06:32 16° E 22:08:46 24° ENE 22:12:15 10° N
Geosat 4.0 22:03:54 10° NE 22:08:54 64° ESE 22:12:23 20° SSW
ARIANE 5 R/B 4.0 22:07:11 19° ESE 22:09:21 28° ENE 22:13:08 10° N
Cosmos 44 Rocket 4.1 22:07:30 10° WSW 22:12:33 58° NW 22:17:42 10° NE
USA 305 3.1 22:09:01 10° WNW 22:12:44 36° SW 22:13:09 35° SSW
BREEZE-M R/B 4.3 22:05:38 10° W 22:15:12 81° S 22:20:51 10° E
Ariane Rocket 4.1 22:12:25 16° SSW 22:15:58 38° W 22:20:42 10° NNW
Cosmos 1602 Rocket 3.5 22:12:31 10° NNW 22:16:50 79° W 22:18:42 33° S
Cosmos 2219 Rocket 3.0 22:12:35 10° NNW 22:18:00 43° NE 22:21:48 18° ESE
DEBRIS 4.0 22:14:44 10° WSW 22:18:30 71° S 22:31:58 10° E
NOSS 3-4 (A) 3.8 22:14:03 10° NW 22:20:33 77° NE 22:26:01 21° SE
NOSS 3-4 (C) 3.8 22:14:38 10° NW 22:21:10 77° NE 22:26:40 20° SE
Cosmos 1437 Rocket 2.5 22:21:47 38° SSW 22:23:01 81° WNW 22:26:37 10° N
Cosmos 1461 3.9 22:26:32 24° E 22:26:32 24° E 22:28:47 10° ENE
Cosmos 2151 3.7 22:23:07 10° NNW 22:27:03 44° W 22:28:56 26° SSW
Cosmos 1428 Rocket 4.5 22:21:43 10° N 22:28:01 78° ENE 22:31:20 30° SSE
Cosmos 2322 Rocket 2.3 22:22:24 10° NNW 22:28:05 74° ENE 22:31:03 29° SE
Cosmos 2034 Rocket 4.3 22:27:37 29° SSE 22:30:46 53° E 22:36:56 10° NNE
Cosmos 2082 Rocket 2.7 22:25:08 10° SW 22:30:48 62° NW 22:36:30 10° NNE
ATLAS 2AS CENTAUR R/B 4.2 22:25:12 10° W 22:31:31 37° NNW 22:37:48 10° NE
GRACE-FO 1 4.3 22:30:57 52° S 22:31:43 89° W 22:35:14 10° N
GRACE-FO 2 4.3 22:31:25 52° S 22:32:12 88° W 22:35:42 10° N
Cosmos 220 Rocket 4.1 22:32:36 43° SE 22:33:18 49° ESE 22:37:16 10° NE
Meteor 1-5 Rocket 4.3 22:31:30 10° NNW 22:37:09 79° W 22:40:03 31° S
Cosmos 1536 4.0 22:34:05 10° N 22:37:17 27° ENE 22:38:06 25° E
Cosmos 1707 4.1 22:38:21 17° ENE 22:38:21 17° ENE 22:39:41 10° NE
USA 234 3.6 22:33:13 10° ENE 22:39:23 42° SE 22:42:49 24° S
COSMOS 2428 4.3 22:36:19 10° NNW 22:41:15 29° NE 22:46:09 10° E
Cosmos 1607 4.4 22:38:39 10° WSW 22:44:47 64° NW 22:51:04 10° NE
Okean 1-7 Rocket 3.7 22:41:08 10° NNW 22:45:33 67° W 22:47:08 38° SSW
IKONOS-2 4.4 22:42:20 10° NNE 22:46:29 79° WNW 22:48:04 37° SSW
Cosmos 1503 Rocket 3.9 22:41:38 10° NNW 22:46:53 81° ENE 22:49:02 36° SSE
Cosmos 1763 Rocket 4.2 22:45:39 32° SE 22:46:55 36° ESE 22:51:43 10° NE
Cosmos 1777 Rocket 3.9 22:41:54 10° NNW 22:47:10 82° WSW 22:49:16 37° SSE
Cosmos 2278 3.8 22:41:30 10° NW 22:47:10 66° WSW 22:49:38 34° S
Helios 1A 2.8 22:43:31 10° NNE 22:47:28 81° WNW 22:48:44 41° SSW
Cosmos-2242 3.7 22:47:28 34° ESE 22:48:07 36° E 22:51:55 10° NNE
Cosmos 909 Rocket 4.2 22:43:04 10° SW 22:49:21 73° NW 22:55:59 10° NE
Cosmos 990 Rocket 4.2 22:45:05 10° NNW 22:50:14 64° ENE 22:52:30 33° SE
Cosmos 1805 3.6 22:47:26 10° NNW 22:50:32 40° W 22:51:00 37° WSW
COSMOS 2406 3.3 22:49:26 17° SW 22:54:01 79° WNW 22:59:49 10° NNE
Cosmos 1606 Rocket 3.5 22:52:44 41° SSW 22:54:15 84° WNW 22:58:37 10° N
SL-16 R/B 2.7 22:49:04 10° NW 22:54:30 47° WSW 22:56:47 31° SSW
USA 290 3.6 22:56:48 27° ENE 22:56:48 27° ENE 22:58:49 10° NE
CZ-4C R/B 3.5 22:52:27 10° W 22:56:54 39° NNW 23:02:38 10° NE
Cosmos 1354 Rocket 4.1 22:51:50 10° NNW 22:57:07 71° ENE 22:59:19 35° SE
Cosmos 1486 Rocket 4.2 22:53:43 10° NNW 22:58:54 60° WSW 23:00:50 36° S
Nadezhda 4 Rocket 4.2 22:53:42 10° NNW 22:59:43 60° W 23:02:51 29° SSW
Cosmos 1634 Rocket 4.3 22:57:50 32° SSE 23:00:23 50° E 23:06:20 10° NNE
CSL-04 DEB 4.2 23:00:26 52° SW 23:00:54 58° WSW 23:04:28 10° NNW
Cosmos 1766 3.0 22:58:03 10° N 23:01:15 56° ENE 23:01:17 56° E
Cosmos 1470 3.9 23:01:03 10° NNE 23:03:50 24° ENE 23:04:12 24° E
Cosmos 2098 Rocket 3.8 23:02:09 25° SW 23:04:54 54° WNW 23:09:23 10° N
SeaSat 1 3.5 23:03:53 17° ESE 23:07:09 39° NE 23:11:42 10° NNW
Cosmos 1726 Rocket 3.3 23:06:20 50° SSW 23:07:21 83° WNW 23:11:25 10° N
Cosmos 2333 Rocket 2.9 23:02:11 10° NW 23:07:33 43° WSW 23:09:39 31° SSW
Cosmos 2221 4.1 23:09:57 20° E 23:10:33 21° E 23:13:42 10° NE
Cosmos 1076 Rocket 3.7 23:06:20 10° NNW 23:10:33 59° W 23:11:38 44° SSW
Meteor 2-2 Rocket 4.4 23:10:21 37° SSE 23:12:26 60° E 23:18:04 10° NNE
Cosmos 1842 4.3 23:13:51 25° ENE 23:13:51 25° ENE 23:16:06 10° NNE
BREEZE-M DEB (TANK) 3.6 23:08:19 10° W 23:16:50 60° S 23:21:41 10° ESE
CZ-2C R/B 3.5 23:16:22 24° ESE 23:19:03 42° ENE 23:23:58 10° N
Cosmos 1833 4.4 23:17:42 39° SSE 23:19:27 54° ESE 23:24:56 10° NE
Cosmos 2026 Rocket 4.2 23:18:02 10° NNW 23:24:22 68° W 23:27:17 33° SSW
Okean 1 3.8 23:23:58 38° WSW 23:24:41 44° WNW 23:28:09 10° N
Spot 4 3.9 23:23:21 44° S 23:24:46 69° WSW 23:29:34 10° NNW
KORONAS-FOTON 3.9 23:25:14 51° E 23:25:14 51° E 23:28:24 10° NNE
Helios 1B rocket 3.4 23:25:48 26° WSW 23:26:07 27° W 23:29:09 10° NW
SAR-Lupe-2 3.2 23:26:37 87° SW 23:26:38 88° WSW 23:29:59 10° NNW
Cosmos 1975 3.5 23:24:14 10° N 23:27:42 37° ENE 23:28:17 35° E
Aureole 1 Rocket 3.7 23:24:02 10° NNW 23:29:14 81° ENE 23:32:03 34° SSE
Cosmos 2322 4.2 23:26:12 10° NNW 23:31:50 56° NE 23:35:17 23° ESE
Cosmos 44 3.6 23:29:50 10° NW 23:35:17 73° NE 23:38:07 28° SE
Cosmos 2297 Rocket 4.2 23:33:58 12° ESE 23:35:24 13° E 23:37:44 10° ENE
Cosmos 1271 Rocket 3.2 23:38:07 39° E 23:38:07 39° E 23:41:08 10° NNE
Cosmos 372 Rocket 4.0 23:36:29 10° NNW 23:41:38 76° ENE 23:43:34 39° SE
RESURS DK-1 3.4 23:38:41 10° NNW 23:42:27 39° NE 23:44:13 25° ESE
Cosmos 1937 Rocket 4.2 23:37:51 10° NNW 23:42:52 47° ENE 23:45:41 24° ESE
Cosmos 2360 Rocket 3.0 23:39:09 10° NW 23:44:23 38° WSW 23:45:58 32° SW
ALOS 2 3.0 23:43:55 44° SW 23:44:49 52° W 23:49:08 10° NNW
ARIANE 5 R/B 3.3 23:44:33 37° SW 23:45:29 43° W 23:49:44 10° NNW
Meteor 1-11 Rocket 4.2 23:41:11 10° N 23:46:49 53° ENE 23:49:31 29° SE
Meteor 1-26 Rocket 4.3 23:45:25 34° SSW 23:47:47 68° WNW 23:53:25 10° N
GP-B 3.5 23:43:58 10° N 23:48:14 50° E 23:49:14 41° SE
Cosmos 2058 Rocket 3.2 23:48:52 46° SW 23:49:59 65° WNW 23:54:20 10° N
Cosmos 468 Rocket 4.1 23:51:08 43° SSE 23:52:39 62° ESE 23:57:51 10° NNE
